Hourly Weather Dzieszkowo

Today, 6 May, Thursday

Time Temperature Precipitation Wind Pressure Humidity
00:00 +3°C° 0.1 mm 10 mps 747 mmHg 73%
01:00 +3°C° 0 mm 10 mps 748 mmHg 69%
02:00 +3°C° 0 mm 10 mps 748 mmHg 67%
03:00 +2°C° 0 mm 10 mps 748 mmHg 65%
04:00 +2°C° 0 mm 9 mps 749 mmHg 63%
05:00 +2°C° 0 mm 9 mps 749 mmHg 64%
06:00 +2°C° 0 mm 9 mps 749 mmHg 66%
07:00 +2°C° 0 mm 9 mps 749 mmHg 68%
08:00 +5°C° 0 mm 9 mps 749 mmHg 61%
09:00 +6°C° 0 mm 9 mps 750 mmHg 55%
10:00 +7°C° 0 mm 9 mps 750 mmHg 49%
11:00 +8°C° 0 mm 9 mps 750 mmHg 46%
12:00 +8°C° 0 mm 9 mps 750 mmHg 43%
13:00 +10°C° 0 mm 8 mps 750 mmHg 40%
14:00 +10°C° 0 mm 8 mps 750 mmHg 41%
15:00 +10°C° 0 mm 7 mps 750 mmHg 43%
16:00 +10°C° 0 mm 6 mps 750 mmHg 44%
17:00 +9°C° 0 mm 5 mps 750 mmHg 49%
18:00 +7°C° 0 mm 4 mps 750 mmHg 55%
19:00 +7°C° 0 mm 3 mps 750 mmHg 61%
20:00 +5°C° 0 mm 3 mps 751 mmHg 65%
21:00 +5°C° 0 mm 2 mps 751 mmHg 69%
22:00 +4°C° 0 mm 2 mps 751 mmHg 72%
23:00 +4°C° 0 mm 2 mps 751 mmHg 75%

Tomorrow, 7 May, Friday

Time Temperature Precipitation Wind Pressure Humidity
00:00 +5°C° 0 mm 1 mps 751 mmHg 77%
01:00 +5°C° 0 mm 1 mps 750 mmHg 79%
02:00 +5°C° 0 mm 1 mps 750 mmHg 79%
03:00 +5°C° 0 mm 1 mps 750 mmHg 80%
04:00 +5°C° 0 mm 1 mps 750 mmHg 80%
05:00 +5°C° 0 mm 1 mps 750 mmHg 77%
06:00 +5°C° 0 mm 2 mps 750 mmHg 75%
07:00 +6°C° 0 mm 2 mps 751 mmHg 72%
08:00 +7°C° 0 mm 3 mps 751 mmHg 68%
09:00 +6°C° 0 mm 4 mps 751 mmHg 64%
10:00 +7°C° 0 mm 4 mps 752 mmHg 60%
11:00 +7°C° 0 mm 5 mps 752 mmHg 56%
12:00 +8°C° 0 mm 5 mps 752 mmHg 53%
13:00 +9°C° 0 mm 6 mps 752 mmHg 49%
14:00 +9°C° 0.1 mm 6 mps 753 mmHg 52%
15:00 +8°C° 0.1 mm 6 mps 753 mmHg 56%
16:00 +8°C° 0.1 mm 6 mps 753 mmHg 59%
17:00 +7°C° 0.2 mm 6 mps 754 mmHg 67%
18:00 +6°C° 0.2 mm 5 mps 754 mmHg 74%
19:00 +5°C° 0.2 mm 5 mps 755 mmHg 81%
20:00 +3°C° 0 mm 5 mps 756 mmHg 85%
21:00 +3°C° 0 mm 4 mps 756 mmHg 89%
22:00 +1°C° 0 mm 4 mps 757 mmHg 94%
23:00 +1°C° 0 mm 4 mps 757 mmHg 94%

Day after tomorrow, 8 May, Saturday

Time Temperature Precipitation Wind Pressure Humidity
00:00 +1°C° 0 mm 4 mps 757 mmHg 94%
01:00 +1°C° 0 mm 4 mps 757 mmHg 95%
02:00 0°C° 0 mm 4 mps 758 mmHg 95%
03:00 0°C° 0 mm 4 mps 758 mmHg 96%
04:00 0°C° 0 mm 4 mps 758 mmHg 96%
05:00 +1°C° 0 mm 5 mps 759 mmHg 93%
06:00 +2°C° 0 mm 5 mps 759 mmHg 90%
07:00 +3°C° 0 mm 5 mps 759 mmHg 87%
08:00 +5°C° 0 mm 5 mps 760 mmHg 79%
09:00 +6°C° 0 mm 5 mps 760 mmHg 71%
10:00 +7°C° 0 mm 5 mps 760 mmHg 62%
11:00 +9°C° 0 mm 5 mps 760 mmHg 56%
12:00 +11°C° 0 mm 4 mps 760 mmHg 50%
13:00 +12°C° 0 mm 4 mps 760 mmHg 43%
14:00 +12°C° 0 mm 4 mps 760 mmHg 43%
15:00 +12°C° 0 mm 3 mps 760 mmHg 43%
16:00 +12°C° 0 mm 3 mps 760 mmHg 42%
17:00 +12°C° 0 mm 2 mps 760 mmHg 50%
18:00 +10°C° 0 mm 2 mps 760 mmHg 58%
19:00 +8°C° 0 mm 2 mps 760 mmHg 65%
20:00 +7°C° 0 mm 2 mps 760 mmHg 68%
21:00 +5°C° 0 mm 3 mps 760 mmHg 70%
22:00 +4°C° 0 mm 3 mps 760 mmHg 72%
23:00 +5°C° 0 mm 4 mps 759 mmHg 67%

9 May, Sunday

Time Temperature Precipitation Wind Pressure Humidity
00:00 +5°C° 0 mm 4 mps 759 mmHg 61%
01:00 +6°C° 0 mm 5 mps 758 mmHg 55%
02:00 +6°C° 0 mm 5 mps 758 mmHg 56%
03:00 +5°C° 0 mm 6 mps 757 mmHg 58%
04:00 +7°C° 0 mm 6 mps 756 mmHg 59%
05:00 +7°C° 0.1 mm 6 mps 756 mmHg 63%
06:00 +7°C° 0.1 mm 6 mps 756 mmHg 67%
07:00 +7°C° 0.1 mm 6 mps 756 mmHg 71%
08:00 +9°C° 0 mm 6 mps 756 mmHg 66%
09:00 +13°C° 0 mm 6 mps 756 mmHg 61%
10:00 +15°C° 0 mm 7 mps 756 mmHg 56%
11:00 +17°C° 0 mm 7 mps 755 mmHg 54%
12:00 +18°C° 0 mm 7 mps 755 mmHg 52%
13:00 +21°C° 0 mm 7 mps 755 mmHg 50%
14:00 +21°C° 0 mm 6 mps 755 mmHg 52%
15:00 +22°C° 0 mm 6 mps 754 mmHg 54%
16:00 +22°C° 0 mm 6 mps 754 mmHg 55%
17:00 +21°C° 0 mm 5 mps 754 mmHg 60%
18:00 +19°C° 0 mm 5 mps 754 mmHg 66%
19:00 +17°C° 0 mm 5 mps 754 mmHg 71%
20:00 +16°C° 0 mm 5 mps 754 mmHg 74%
21:00 +15°C° 0 mm 5 mps 754 mmHg 78%
22:00 +14°C° 0 mm 5 mps 754 mmHg 82%
23:00 +13°C° 0 mm 5 mps 754 mmHg 82%

10 May, Monday

Time Temperature Precipitation Wind Pressure Humidity
00:00 +12°C° 0 mm 5 mps 754 mmHg 82%
01:00 +12°C° 0 mm 5 mps 754 mmHg 83%
02:00 +10°C° 0 mm 5 mps 754 mmHg 82%
03:00 +10°C° 0 mm 5 mps 754 mmHg 82%
04:00 +9°C° 0 mm 5 mps 754 mmHg 81%
05:00 +10°C° 0 mm 5 mps 754 mmHg 78%
06:00 +12°C° 0 mm 5 mps 754 mmHg 75%
07:00 +13°C° 0 mm 5 mps 754 mmHg 71%
08:00 +15°C° 0 mm 5 mps 755 mmHg 66%
09:00 +16°C° 0 mm 5 mps 755 mmHg 61%
10:00 +19°C° 0 mm 5 mps 755 mmHg 57%
11:00 +20°C° 0 mm 5 mps 755 mmHg 54%
12:00 +21°C° 0 mm 5 mps 755 mmHg 52%
13:00 +23°C° 0 mm 4 mps 755 mmHg 50%
14:00 +23°C° 0 mm 4 mps 755 mmHg 50%
15:00 +24°C° 0 mm 3 mps 754 mmHg 50%
16:00 +24°C° 0 mm 3 mps 754 mmHg 50%
17:00 +23°C° 0 mm 2 mps 754 mmHg 58%
18:00 +20°C° 0 mm 2 mps 754 mmHg 65%
19:00 +19°C° 0 mm 2 mps 754 mmHg 72%
20:00 +18°C° 0 mm 2 mps 754 mmHg 77%
21:00 +17°C° 0 mm 2 mps 754 mmHg 81%
22:00 +14°C° 0 mm 3 mps 753 mmHg 85%
23:00 +14°C° 0 mm 3 mps 753 mmHg 88%

11 May, Tuesday

Time Temperature Precipitation Wind Pressure Humidity
00:00 +13°C° 0 mm 3 mps 753 mmHg 91%
01:00 +13°C° 0 mm 3 mps 752 mmHg 94%
02:00 +13°C° 0 mm 3 mps 752 mmHg 93%
03:00 +13°C° 0 mm 4 mps 751 mmHg 93%
04:00 +13°C° 0 mm 4 mps 751 mmHg 92%
05:00 +14°C° 0 mm 4 mps 751 mmHg 88%
06:00 +15°C° 0 mm 4 mps 751 mmHg 83%
07:00 +16°C° 0 mm 5 mps 751 mmHg 79%
08:00 +18°C° 0 mm 4 mps 751 mmHg 75%
09:00 +20°C° 0 mm 4 mps 751 mmHg 72%
10:00 +21°C° 0 mm 4 mps 751 mmHg 68%
11:00 +22°C° 0 mm 4 mps 751 mmHg 67%
12:00 +22°C° 0 mm 4 mps 751 mmHg 66%
13:00 +23°C° 0 mm 4 mps 751 mmHg 65%
14:00 +22°C° 0 mm 4 mps 751 mmHg 66%
15:00 +22°C° 0 mm 3 mps 751 mmHg 66%
16:00 +21°C° 0 mm 3 mps 752 mmHg 67%
17:00 +20°C° 0 mm 3 mps 752 mmHg 72%
18:00 +18°C° 0 mm 3 mps 752 mmHg 78%
19:00 +17°C° 0 mm 3 mps 752 mmHg 84%
20:00 +14°C° 0 mm 3 mps 752 mmHg 86%
21:00 +13°C° 0 mm 3 mps 752 mmHg 89%
22:00 +11°C° 0 mm 3 mps 752 mmHg 92%
23:00 +11°C° 0.3 mm 3 mps 752 mmHg 94%
Show more

We Need Your Consent

Meteoprog and our Service Providers may store and access personal data such as cookies, device identifiers or other similar technologies on your device and process such data to personalise content and ads, as well as provide social media features and to analyse the traffic.

  • Store and/or access information on your device

    Cookies, device identifiers or other information can be stored or accessed on your device for the purposes indicated above.

  • Personalised ads and content, ad and content measurement, audience insights, and products development

    Ads and content can be personalised based on a profile. More data can be added to better personalise ads and content. Ad and content performance can be measured. Insights about the audience who saw the ads and content can be derived. Such data can be used to develop or improve user’s experience, systems and software.

By clicking ‘I Agree’ you will allow the use of indicated cookies, device identifiers, web beacons or other similar technologies. Your settings can be changed in the browser on your device.

For certain purposes, legitimate interests may be relied on, rather than consent. You can read more about this in our Privacy and Cookie Policy.